Location: Unspecified
(0.0000°N, 0.0000°E)
Time: 05:48:13
(UTC+02:00)

Iridium 47 - Visible Passes

Search period start: 23 October 2014 00:00
Search period end: 01 November 2014 23:00
Orbit: 776 x 779 km, 86.4° (Epoch: 22 October)

Date Brightness Start Highest point End Pass type
(mag) Time Alt. Az. Time Alt. Az. Time Alt. Az.
24 Oct 8.0 06:49:09 10° NE 06:52:39 18° E 06:56:10 10° SE visible
25 Oct 8.0 20:29:32 10° SW 20:33:10 19° W 20:36:47 10° NW visible
27 Oct 7.2 05:48:14 10° NNE 05:52:42 30° E 05:57:11 10° SSE visible
28 Oct 8.1 05:16:52 10° ENE 05:19:15 13° E 05:21:38 10° ESE visible
28 Oct 8.4 19:31:33 10° WSW 19:33:12 11° W 19:34:51 10° WNW visible
30 Oct 6.1 05:47:45 10° NNE 05:52:44 48° E 05:57:44 10° SSE visible
31 Oct 7.6 05:15:22 10° NE 05:19:17 22° E 05:23:12 10° SE visible
